• în România
  • Lista ţărilor
  • Pe 7 zile
  • Temperatura apei
  • Hartă satelitară
  • Meteo pe hartă
  • Widget-uri
  • user-avatar
    Intrare

    Meteo pe oră la Maturín

    Astăzi, 21 Octombrie, Duminică

    Timp Temperatura Precipitaţii Vânt Presiune Umiditate
    00:00 +24°C° 0 mm 0 m/s 753 mmHg 95%
    01:00 +23°C° 0 mm 0 m/s 752 mmHg 95%
    02:00 +23°C° 0 mm 0 m/s 752 mmHg 95%
    03:00 +23°C° 0 mm 0 m/s 752 mmHg 95%
    04:00 +23°C° 0 mm 0 m/s 752 mmHg 96%
    05:00 +23°C° 0 mm 0 m/s 752 mmHg 96%
    06:00 +24°C° 0 mm 0 m/s 752 mmHg 93%
    07:00 +25°C° 0 mm 0 m/s 753 mmHg 89%
    08:00 +26°C° 0 mm 0 m/s 753 mmHg 86%
    09:00 +30°C° 0.1 mm 1 m/s 753 mmHg 78%
    10:00 +32°C° 0.1 mm 1 m/s 754 mmHg 70%
    11:00 +33°C° 0.1 mm 1 m/s 754 mmHg 62%
    12:00 +34°C° 0.6 mm 1 m/s 753 mmHg 63%
    13:00 +34°C° 0.6 mm 1 m/s 752 mmHg 65%
    14:00 +34°C° 0.6 mm 1 m/s 751 mmHg 66%
    15:00 +33°C° 2.6 mm 1 m/s 751 mmHg 73%
    16:00 +31°C° 2.6 mm 1 m/s 750 mmHg 80%
    17:00 +29°C° 2.6 mm 1 m/s 750 mmHg 87%
    18:00 +28°C° 2 mm 1 m/s 751 mmHg 90%
    19:00 +28°C° 2 mm 2 m/s 752 mmHg 92%
    20:00 +27°C° 2 mm 2 m/s 752 mmHg 95%
    21:00 +26°C° 0.9 mm 1 m/s 752 mmHg 95%
    22:00 +26°C° 0.9 mm 1 m/s 753 mmHg 96%
    23:00 +26°C° 0.9 mm 1 m/s 753 mmHg 97%

    Mâine, 22 Octombrie, Luni

    Timp Temperatura Precipitaţii Vânt Presiune Umiditate
    00:00 +26°C° 0.6 mm 1 m/s 752 mmHg 97%
    01:00 +26°C° 0.6 mm 1 m/s 752 mmHg 97%
    02:00 +24°C° 0.6 mm 0 m/s 752 mmHg 98%
    03:00 +24°C° 0.2 mm 0 m/s 752 mmHg 98%
    04:00 +24°C° 0.2 mm 0 m/s 752 mmHg 98%
    05:00 +24°C° 0.2 mm 0 m/s 752 mmHg 98%
    06:00 +24°C° 0.4 mm 0 m/s 752 mmHg 95%
    07:00 +25°C° 0.4 mm 0 m/s 753 mmHg 93%
    08:00 +26°C° 0.4 mm 0 m/s 754 mmHg 91%
    09:00 +29°C° 1.3 mm 1 m/s 754 mmHg 85%
    10:00 +30°C° 1.3 mm 1 m/s 754 mmHg 80%
    11:00 +32°C° 1.3 mm 1 m/s 754 mmHg 74%
    12:00 +31°C° 2.8 mm 1 m/s 753 mmHg 78%
    13:00 +31°C° 2.8 mm 1 m/s 752 mmHg 81%
    14:00 +30°C° 2.8 mm 1 m/s 751 mmHg 85%
    15:00 +29°C° 1.2 mm 1 m/s 751 mmHg 88%
    16:00 +29°C° 1.2 mm 1 m/s 751 mmHg 90%
    17:00 +28°C° 1.2 mm 1 m/s 751 mmHg 93%
    18:00 +27°C° 0.1 mm 1 m/s 752 mmHg 93%
    19:00 +27°C° 0.1 mm 1 m/s 753 mmHg 94%
    20:00 +26°C° 0.1 mm 1 m/s 753 mmHg 94%
    21:00 +26°C° 0.2 mm 1 m/s 753 mmHg 95%
    22:00 +26°C° 0.2 mm 1 m/s 754 mmHg 95%
    23:00 +24°C° 0.2 mm 0 m/s 754 mmHg 95%

    Poimâine, 23 Octombrie, Marţi

    Timp Temperatura Precipitaţii Vânt Presiune Umiditate
    00:00 +24°C° 0.7 mm 0 m/s 753 mmHg 96%
    01:00 +23°C° 0.7 mm 0 m/s 753 mmHg 97%
    02:00 +23°C° 0.7 mm 0 m/s 752 mmHg 97%
    03:00 +23°C° 2.4 mm 0 m/s 752 mmHg 97%
    04:00 +23°C° 2.4 mm 0 m/s 752 mmHg 97%
    05:00 +23°C° 2.4 mm 0 m/s 752 mmHg 98%
    06:00 +24°C° 1.6 mm 0 m/s 753 mmHg 96%
    07:00 +26°C° 1.6 mm 1 m/s 753 mmHg 95%
    08:00 +27°C° 1.6 mm 1 m/s 754 mmHg 93%
    09:00 +28°C° 1.5 mm 1 m/s 754 mmHg 90%
    10:00 +29°C° 1.5 mm 1 m/s 754 mmHg 87%
    11:00 +30°C° 1.5 mm 1 m/s 754 mmHg 85%
    12:00 +30°C° 2.2 mm 1 m/s 753 mmHg 83%
    13:00 +31°C° 2.2 mm 1 m/s 753 mmHg 82%
    14:00 +31°C° 2.2 mm 1 m/s 752 mmHg 80%
    15:00 +30°C° 1.8 mm 1 m/s 752 mmHg 84%
    16:00 +29°C° 1.8 mm 1 m/s 752 mmHg 88%
    17:00 +28°C° 1.8 mm 1 m/s 752 mmHg 92%
    18:00 +28°C° 0.6 mm 1 m/s 752 mmHg 93%
    19:00 +27°C° 0.6 mm 1 m/s 753 mmHg 94%
    20:00 +26°C° 0.6 mm 1 m/s 754 mmHg 96%
    21:00 +26°C° 0.7 mm 1 m/s 754 mmHg 96%
    22:00 +26°C° 0.7 mm 1 m/s 754 mmHg 96%
    23:00 +26°C° 0.7 mm 1 m/s 754 mmHg 97%

    24 Octombrie, Miercuri

    Timp Temperatura Precipitaţii Vânt Presiune Umiditate
    00:00 +26°C° 0.4 mm 1 m/s 754 mmHg 97%
    01:00 +26°C° 0.4 mm 1 m/s 753 mmHg 97%
    02:00 +26°C° 0.4 mm 1 m/s 753 mmHg 98%
    03:00 +26°C° 0.7 mm 1 m/s 753 mmHg 98%
    04:00 +25°C° 0.7 mm 1 m/s 753 mmHg 97%
    05:00 +25°C° 0.7 mm 1 m/s 753 mmHg 97%
    06:00 +26°C° 0.2 mm 1 m/s 754 mmHg 96%
    07:00 +26°C° 0.2 mm 1 m/s 754 mmHg 94%
    08:00 +27°C° 0.2 mm 1 m/s 755 mmHg 93%
    09:00 +28°C° 0.1 mm 1 m/s 755 mmHg 85%
    10:00 +29°C° 0.1 mm 1 m/s 755 mmHg 78%
    11:00 +30°C° 0.1 mm 2 m/s 755 mmHg 71%
    12:00 +31°C° 0 mm 2 m/s 754 mmHg 68%
    13:00 +31°C° 0 mm 2 m/s 753 mmHg 65%
    14:00 +32°C° 0 mm 2 m/s 752 mmHg 62%
    15:00 +31°C° 0 mm 2 m/s 752 mmHg 67%
    16:00 +31°C° 0 mm 2 m/s 752 mmHg 71%
    17:00 +30°C° 0 mm 1 m/s 752 mmHg 76%
    18:00 +29°C° 0.4 mm 1 m/s 753 mmHg 81%
    19:00 +27°C° 0.4 mm 1 m/s 753 mmHg 86%
    20:00 +26°C° 0.4 mm 1 m/s 754 mmHg 91%
    21:00 +26°C° 0.6 mm 1 m/s 754 mmHg 92%
    22:00 +26°C° 0.6 mm 1 m/s 754 mmHg 93%
    23:00 +25°C° 0.6 mm 1 m/s 754 mmHg 94%

    25 Octombrie, Joi

    Timp Temperatura Precipitaţii Vânt Presiune Umiditate
    00:00 +25°C° 0 mm 1 m/s 754 mmHg 94%
    01:00 +25°C° 0 mm 1 m/s 753 mmHg 94%
    02:00 +25°C° 0 mm 1 m/s 753 mmHg 94%
    03:00 +25°C° 0 mm 1 m/s 753 mmHg 94%
    04:00 +25°C° 0 mm 1 m/s 753 mmHg 94%
    05:00 +25°C° 0 mm 1 m/s 753 mmHg 94%
    06:00 +26°C° 0 mm 1 m/s 753 mmHg 91%
    07:00 +27°C° 0 mm 1 m/s 754 mmHg 88%
    08:00 +26°C° 0 mm 0 m/s 754 mmHg 85%
    09:00 +29°C° 0 mm 1 m/s 754 mmHg 80%
    10:00 +30°C° 0 mm 1 m/s 754 mmHg 76%
    11:00 +31°C° 0 mm 2 m/s 754 mmHg 71%
    12:00 +32°C° 0 mm 2 m/s 754 mmHg 68%
    13:00 +34°C° 0 mm 2 m/s 753 mmHg 65%
    14:00 +34°C° 0 mm 2 m/s 752 mmHg 62%
    15:00 +33°C° 0.2 mm 1 m/s 752 mmHg 66%
    16:00 +32°C° 0.2 mm 1 m/s 752 mmHg 69%
    17:00 +32°C° 0.2 mm 1 m/s 752 mmHg 73%
    18:00 +30°C° 0.1 mm 1 m/s 752 mmHg 78%
    19:00 +29°C° 0.1 mm 1 m/s 753 mmHg 84%
    20:00 +27°C° 0.1 mm 1 m/s 753 mmHg 90%
    21:00 +27°C° 0 mm 1 m/s 754 mmHg 91%
    22:00 +27°C° 0 mm 1 m/s 754 mmHg 93%
    23:00 +26°C° 0 mm 1 m/s 754 mmHg 95%

    26 Octombrie, Vineri

    Timp Temperatura Precipitaţii Vânt Presiune Umiditate
    00:00 +26°C° 0 mm 1 m/s 754 mmHg 96%
    01:00 +26°C° 0 mm 1 m/s 753 mmHg 96%
    02:00 +25°C° 0 mm 1 m/s 753 mmHg 97%
    03:00 +25°C° 0 mm 1 m/s 753 mmHg 97%
    04:00 +25°C° 0 mm 1 m/s 753 mmHg 97%
    05:00 +25°C° 0 mm 1 m/s 753 mmHg 97%
    06:00 +26°C° 0.1 mm 1 m/s 754 mmHg 94%
    07:00 +28°C° 0.1 mm 1 m/s 754 mmHg 90%
    08:00 +29°C° 0.1 mm 1 m/s 755 mmHg 87%
    09:00 +30°C° 0.1 mm 1 m/s 755 mmHg 79%
    10:00 +32°C° 0.1 mm 2 m/s 755 mmHg 72%
    11:00 +34°C° 0.1 mm 2 m/s 755 mmHg 64%
    12:00 +34°C° 0.7 mm 2 m/s 754 mmHg 66%
    13:00 +34°C° 0.7 mm 2 m/s 753 mmHg 68%
    14:00 +34°C° 0.7 mm 2 m/s 752 mmHg 71%
    15:00 +32°C° 0.2 mm 2 m/s 752 mmHg 72%
    16:00 +31°C° 0.2 mm 2 m/s 752 mmHg 74%
    17:00 +31°C° 0.2 mm 2 m/s 752 mmHg 76%
    18:00 +30°C° 0.1 mm 2 m/s 753 mmHg 81%
    19:00 +29°C° 0.1 mm 2 m/s 754 mmHg 85%
    20:00 +27°C° 0.1 mm 2 m/s 754 mmHg 90%
    21:00 +27°C° 0.6 mm 2 m/s 754 mmHg 92%
    22:00 +27°C° 0.6 mm 2 m/s 755 mmHg 93%
    23:00 +27°C° 0.6 mm 2 m/s 755 mmHg 95%
    Arată mai mult